Find Starlink 4448

NORAD ID: 53504 Int'l Des: 2022-099 Owner: SPXS Country: US Constellation: starlink operational
LEOCIRCULARRETROGRADESSO

Live Position

Loading 3D Globe...

About Starlink 4448

Description loading...

Upcoming Passes

Passes for default location (London). Set your location on the main map for personalized predictions.

Altitude History

Loading altitude history...

Two-Line Element Set

1 53504U 22099AR 26107.33336806 .00522570 00000-0 25095-1 0 9990
2 53504 97.6046 228.5163 0001670 71.2499 312.0160 15.16714496 5714
Epoch: Apr 17, 2026 • Age: 8 hours

Current Status

Altitude 526.7 km
Velocity 7.61 km/s
Sub-Earth Point 75.52°N, 9.97°W
Launch Date Aug 12, 2022
Age 3.6 years
Type internet

Technical Details

Classification Payload
Mass 300.00 kg
Dry Mass 275.00 kg
Total Mass 300.00 kg
Length 0.20 m
Diameter 2.80 m
Span 9.00 m
Shape Box + pan
Manufacturer SPXS
Bus Type Starlink
Phase Status In Orbit
Owner/State SPXS/US

Most Searched